#timestamp,LO_Frequency,Hit,StdDev 
1510718415.0,286047014.9,N
1510718416.0,286047014.9,N
1510718435.8,286047007.7,N
1510718455.6,286047008.8,N
1510718475.4,286047013.0,N
1510718495.3,286047020.1,N
1510718515.1,286047017.3,N
1510718535.8,286047023.0,N
1510718555.7,286047030.3,Y
1510718575.5,286047023.4,P
1510718595.3,286047025.6,P
1510718615.2,286047030.3,P
1510718635.9,286047029.5,Y
1510718655.7,286047005.9,P
1510718675.6,286047013.3,N
1510718695.4,286047015.9,N
1510718715.2,286047015.9,N
1510718735.1,286047025.2,Y
1510718736.0,286047025.2,P
1510718755.8,286047011.8,N
1510718775.6,286047010.3,N
1510718795.5,286047012.0,N
1510718815.3,286047017.1,Y
1510718835.1,286047002.5,P
1510718855.9,286047010.5,N
1510718875.7,286047013.8,N
1510718895.5,286047016.3,Y
1510718915.4,286047010.8,P
1510718935.2,286047010.9,P
1510718955.0,286047019.4,P
1510718955.9,286047019.4,Y
1510718975.8,286046999.7,P
1510718995.6,286047002.4,N
1510719015.4,286047014.0,N
1510719035.3,286047001.0,N
1510719055.1,286047000.5,N
1510719056.0,286047000.5,N
1510719075.8,286046999.0,N
1510719095.7,286046992.2,N
1510719115.5,286046986.6,N
1510719135.3,286046985.3,N
1510719155.1,286046990.0,N
1510719175.9,286046986.3,N
1510719195.7,286046980.5,N
1510719215.5,286046979.6,N
1510719235.4,286046983.2,N
1510719255.2,286046979.5,N
1510719275.0,286046980.2,N
1510719275.9,286046980.2,N
1510719295.8,286046976.3,N
1510719315.6,286046981.8,N
1510719335.4,286046984.3,N
1510719355.3,286046981.9,N
1510719375.1,286046983.1,N
1510719376.0,286046983.1,N
1510719395.8,286046980.2,N
1510719415.7,286046975.0,N
1510719435.5,286046973.4,N
1510719455.3,286046979.4,N
1510719475.1,286046989.0,N
1510719495.9,286046998.2,N
1510719515.7,286046988.5,N
1510719535.5,286046983.9,N
1510719555.4,286046981.8,N
1510719575.2,286046978.1,N
1510719595.0,286046983.6,N
1510719595.9,286046983.6,N
1510719615.8,286046977.7,Y
1510719635.6,286046993.9,P
1510719655.4,286046992.6,N
1510719675.3,286046989.9,N
1510719695.1,286046987.8,Y
1510719715.8,286046995.7,P
1510719735.7,286046988.8,P
1510719755.5,286046982.2,P
1510719775.3,286046978.5,Y
1510719795.2,286046985.1,P
1510719815.0,286046976.4,P
1510719815.9,286046976.4,P
1510719835.8,286046971.9,Y
1510719855.6,286046984.2,P
1510719875.4,286046980.9,P
1510719895.2,286046983.8,P
1510719915.1,286046983.4,Y
1510719916.0,286046983.4,P
1510719935.8,286046996.3,P
1510719955.6,286046987.7,N
1510719975.5,286046982.9,Y
1510719995.3,286046990.6,P
1510720015.1,286046989.9,P
1510720035.9,286046987.4,P
1510720055.7,286046996.7,N
1510720075.5,286047003.8,N
1510720095.4,286047007.1,N
1510720115.2,286047005.8,N
1510720135.0,286047003.8,N
1510720135.9,286047003.8,N
1510720155.8,286047009.1,N
1510720175.6,286047012.1,N
1510720195.4,286047009.3,N
1510720215.3,286047007.0,N
1510720235.1,286047006.8,N
1510720236.0,286047006.8,N
1510720255.8,286047001.4,N
1510720275.7,286047004.4,N
1510720295.5,286047004.9,N
1510720315.3,286047013.7,N
1510720335.1,286047011.7,N
1510720355.9,286047012.3,N
1510720375.7,286047007.1,N
1510720395.5,286047002.1,N
1510720415.4,286047005.4,N
1510720435.2,286047008.4,N
1510720455.0,286047006.8,N
1510720455.9,286047006.8,N
1510720475.8,286047009.5,N
1510720495.6,286047012.9,N
1510720515.4,286047009.0,N
1510720535.3,286046999.9,N
1510720555.1,286047005.8,N
1510720556.0,286047005.8,N
1510720575.8,286047009.1,N
1510720595.7,286047007.9,N
1510720615.5,286047014.3,Y
1510720635.3,286047005.7,P
1510720655.2,286047003.6,P
1510720675.9,286047008.8,P
1510720695.7,286047010.5,Y
1510720715.6,286047009.7,P
1510720735.4,286047013.9,P
1510720755.2,286047011.0,P
1510720775.1,286047011.3,Y
1510720776.0,286047011.3,P
1510720795.8,286047002.7,P
1510720815.6,286046998.3,N
1510720835.5,286047002.5,N
1510720855.3,286047004.4,N
1510720875.1,286047000.6,N
1510720895.9,286046992.5,N
1510720915.7,286046992.5,N
1510720935.5,286046988.7,N
1510720955.3,286046985.5,N
1510720975.2,286046985.6,N
1510720995.0,286046986.9,N
1510720995.9,286046986.9,N
1510721015.7,286046989.1,N
1510721035.6,286046984.4,N
1510721055.4,286046985.7,N
1510721075.2,286046986.2,N
1510721095.1,286046982.5,N
1510721096.0,286046982.5,N
1510721115.8,286046985.3,N
1510721135.6,286046988.6,N
1510721155.5,286046984.9,N
1510721175.3,286046987.8,N
1510721195.1,286046982.7,N
1510721215.9,286046979.1,N
1510721235.7,286046981.9,N
1510721255.5,286046982.7,N
1510721275.3,286046984.0,N
1510721295.2,286046982.0,N
1510721315.0,286046983.0,N
1510721315.9,286046983.0,N
1510721335.7,286046987.9,N
1510721355.6,286046995.6,N
1510721375.4,286047002.5,N
1510721395.2,286047004.2,N
1510721415.1,286046998.9,N
1510721416.0,286046998.9,N
1510721435.8,286047005.1,N
1510721455.6,286047008.1,N
1510721475.5,286047001.4,N
1510721495.3,286047004.1,N
1510721515.1,286047008.2,N
1510721535.9,286047012.3,N
1510721555.7,286047013.3,N
1510721575.5,286047019.8,N
1510721595.4,286047026.5,N
1510721615.2,286047031.0,N
1510721635.0,286047032.0,N
1510721635.9,286047032.0,N
1510721655.8,286047036.4,N
1510721675.6,286047036.9,N
1510721695.4,286047040.4,N
1510721715.2,286047047.2,N
1510721735.1,286047051.7,N
1510721736.0,286047051.7,N
1510721755.8,286047046.4,N
1510721775.6,286047050.7,N
1510721795.5,286047053.4,N
1510721815.3,286047054.3,N
1510721835.1,286047058.2,N
1510721855.9,286047060.8,N
1510721875.7,286047064.1,N
1510721895.5,286047067.5,Y
1510721915.4,286047034.2,P
1510721935.2,286047028.7,P
1510721955.0,286047023.6,P
1510721955.9,286047023.6,Y
1510721975.8,286047000.3,P
1510721995.6,286047002.0,N
